Voltar ao catálogo

CZ-6A DEB

AtivoPO
NORAD 60661·DEBRIS·🇨🇳 China

Lançado Aug 6, 2024 de Taiyuan Satellite Launch Center

Loading…

Próximas Passagens (próximas 24 horas)

TLE

AtualizadoSource: Space-Track

Época: Sep 14, 2026, 10:12 UTC

1 60661U 24140BN  26257.42513390  .00001837  00000-0  53332-3 0  9997
2 60661  88.8760 250.1831 0043971 350.6754   9.3627 14.43441765110426

Acompanhe CZ-6A DEB em tempo real com AllMySat

Download on the App Store